Language: 


Des rapports , des résumés tant et plus, au choix de chacun....


Données statistiques de la station
Quotidien Rapport Janvier 21, 2017 Unités:  Métrique    Anglais   les deux
« Précédent Jour
Suivant Jour »
Quotidien Hebdomadaire Mensuel Annuel Actuel
  Haut: Bas: Moyen:
Température: 4.4 °C -5.0 °C -1.6 °C
Pt de rosée: -1.3 °C -7.6 °C -5.8 °C
Humidité: 90 % 0 % 74 %
Vitesse du vent: 9.7 km/h 0.0 km/h 4.6 km/h
Rafales: 12.2 km/h - -
Vent:- - ESE
Pression: 1030.0 hPa 0.0 hPa -
Précipitation: 0.0 mm    
Historical Graphs
 
 
Données statistiques pour Janvier 21, 2017
Heure Température Point de rosée Pression Vent Vitesse du vent Refales Humidité Pluie (taux horaire)
00:04 -1.7 °C -6.6 °C 1030.0 hPa ENE 5.5 km/h 7.9 km/h 69 % 0.0 mm
00:09 -1.8 °C -6.7 °C 1030.0 hPa ENE 5.0 km/h 6.9 km/h 69 % 0.0 mm
00:14 -1.8 °C -6.7 °C 1030.0 hPa ENE 5.8 km/h 6.9 km/h 69 % 0.0 mm
00:19 -1.9 °C -6.6 °C 1030.0 hPa ENE 6.1 km/h 6.9 km/h 70 % 0.0 mm
00:24 -1.9 °C -6.6 °C 1029.0 hPa ENE 6.4 km/h 6.9 km/h 70 % 0.0 mm
00:25 -1.9 °C -6.6 °C 1029.0 hPa ENE 5.8 km/h 6.9 km/h 70 % 0.0 mm
00:30 -1.9 °C -6.6 °C 1029.0 hPa ENE 6.4 km/h 6.9 km/h 70 % 0.0 mm
00:35 -1.9 °C -6.6 °C 1029.0 hPa ENE 6.1 km/h 7.2 km/h 70 % 0.0 mm
00:40 -1.9 °C -6.6 °C 1029.0 hPa ENE 7.9 km/h 7.9 km/h 70 % 0.0 mm
00:45 -1.9 °C -6.4 °C 1029.0 hPa ENE 6.9 km/h 7.9 km/h 71 % 0.0 mm
00:50 -1.9 °C -6.4 °C 1029.0 hPa ENE 7.9 km/h 7.9 km/h 71 % 0.0 mm
00:55 -1.9 °C -6.5 °C 1029.0 hPa ENE 6.9 km/h 8.7 km/h 71 % 0.0 mm
01:00 -1.9 °C -6.3 °C 1029.0 hPa ENE 6.9 km/h 8.7 km/h 72 % 0.0 mm
01:05 -1.9 °C -6.3 °C 1029.0 hPa ENE 6.4 km/h 6.9 km/h 72 % 0.0 mm
01:10 -2.1 °C -6.4 °C 1029.0 hPa NE 6.9 km/h 8.7 km/h 72 % 0.0 mm
01:15 -2.1 °C -6.4 °C 1029.0 hPa NE 8.7 km/h 8.7 km/h 72 % 0.0 mm
01:20 -2.1 °C -6.4 °C 1029.0 hPa NE 6.9 km/h 9.0 km/h 72 % 0.0 mm
01:25 -2.1 °C -6.3 °C 1029.0 hPa NE 6.9 km/h 9.0 km/h 73 % 0.0 mm
01:30 -2.3 °C -6.6 °C 1029.0 hPa NE 5.8 km/h 8.7 km/h 72 % 0.0 mm
01:35 -2.4 °C -6.6 °C 1029.0 hPa NNE 6.1 km/h 7.2 km/h 73 % 0.0 mm
01:40 -2.6 °C -6.7 °C 1029.0 hPa NNE 7.9 km/h 7.9 km/h 73 % 0.0 mm
01:45 -2.7 °C -6.7 °C 1029.0 hPa NE 6.9 km/h 8.7 km/h 74 % 0.0 mm
01:50 -2.7 °C -6.6 °C 1029.0 hPa NE 7.9 km/h 8.7 km/h 75 % 0.0 mm
01:55 -2.7 °C -6.6 °C 1029.0 hPa NE 7.9 km/h 9.7 km/h 75 % 0.0 mm
02:02 0.0 °C -6.6 °C 0.0 hPa NNE 5.8 km/h 9.0 km/h 0 % 0.0 mm
02:07 -2.8 °C -6.5 °C 1028.0 hPa NNE 6.4 km/h 8.7 km/h 76 % 0.0 mm
02:12 -2.9 °C -6.6 °C 1028.0 hPa NE 6.1 km/h 8.7 km/h 76 % 0.0 mm
02:17 -3.1 °C -6.7 °C 1028.0 hPa NNE 5.5 km/h 7.9 km/h 76 % 0.0 mm
02:22 -3.1 °C -6.5 °C 1029.0 hPa NE 6.1 km/h 7.9 km/h 77 % 0.0 mm
02:27 -3.1 °C -6.5 °C 1029.0 hPa NNE 7.6 km/h 7.9 km/h 77 % 0.0 mm
02:32 -3.1 °C -6.6 °C 1029.0 hPa NNE 6.4 km/h 7.9 km/h 77 % 0.0 mm
02:37 -3.1 °C -6.6 °C 1029.0 hPa North 5.8 km/h 7.9 km/h 77 % 0.0 mm
02:42 -3.2 °C -6.7 °C 1029.0 hPa NNE 5.0 km/h 7.6 km/h 77 % 0.0 mm
02:47 -3.2 °C -6.5 °C 1029.0 hPa NNE 6.1 km/h 7.6 km/h 78 % 0.0 mm
02:52 -3.2 °C -6.5 °C 1029.0 hPa North 6.1 km/h 7.2 km/h 78 % 0.0 mm
02:57 -3.1 °C -6.3 °C 1029.0 hPa NE 5.5 km/h 7.2 km/h 79 % 0.0 mm
03:02 -3.2 °C -6.3 °C 1029.0 hPa NNE 6.9 km/h 7.9 km/h 79 % 0.0 mm
03:07 -3.2 °C -6.3 °C 1029.0 hPa NNE 6.4 km/h 7.9 km/h 79 % 0.0 mm
03:12 -3.3 °C -6.4 °C 1029.0 hPa North 7.6 km/h 7.6 km/h 79 % 0.0 mm
03:17 -3.3 °C -6.4 °C 1029.0 hPa North 6.9 km/h 8.7 km/h 79 % 0.0 mm
03:22 -3.3 °C -6.4 °C 1029.0 hPa NNE 6.4 km/h 9.0 km/h 79 % 0.0 mm
03:27 -3.4 °C -6.6 °C 1029.0 hPa NE 8.7 km/h 9.0 km/h 79 % 0.0 mm
03:32 -3.4 °C -6.6 °C 1029.0 hPa NE 7.9 km/h 9.0 km/h 79 % 0.0 mm
03:37 -3.4 °C -6.4 °C 1029.0 hPa NE 9.0 km/h 9.7 km/h 80 % 0.0 mm
03:42 -3.3 °C -6.3 °C 1029.0 hPa NNE 6.9 km/h 9.7 km/h 80 % 0.0 mm
03:47 -3.3 °C -6.3 °C 1029.0 hPa NE 6.4 km/h 9.3 km/h 80 % 0.0 mm
03:52 -3.3 °C -6.3 °C 1029.0 hPa NE 9.0 km/h 9.0 km/h 80 % 0.0 mm
03:57 -3.3 °C -6.3 °C 1029.0 hPa NE 8.7 km/h 9.0 km/h 80 % 0.0 mm
04:02 -3.4 °C -6.4 °C 1029.0 hPa NNE 9.3 km/h 9.3 km/h 80 % 0.0 mm
04:07 -3.4 °C -6.4 °C 1029.0 hPa NNE 7.9 km/h 9.3 km/h 80 % 0.0 mm
04:12 -3.6 °C -6.5 °C 1029.0 hPa NE 6.9 km/h 9.3 km/h 80 % 0.0 mm
04:17 -3.6 °C -6.5 °C 1029.0 hPa NE 6.9 km/h 8.7 km/h 80 % 0.0 mm
04:22 -3.6 °C -6.6 °C 1029.0 hPa NNE 6.1 km/h 8.7 km/h 80 % 0.0 mm
04:27 -3.6 °C -6.4 °C 1029.0 hPa North 5.8 km/h 8.7 km/h 81 % 0.0 mm
04:32 -3.6 °C -6.4 °C 1029.0 hPa NE 5.8 km/h 8.7 km/h 81 % 0.0 mm
04:37 -3.6 °C -6.4 °C 1029.0 hPa NNE 5.8 km/h 7.6 km/h 81 % 0.0 mm
04:42 -3.6 °C -6.4 °C 1029.0 hPa NE 5.5 km/h 7.6 km/h 81 % 0.0 mm
04:47 -3.6 °C -6.3 °C 1029.0 hPa NNE 5.0 km/h 6.9 km/h 82 % 0.0 mm
04:53 -3.6 °C -6.2 °C 1028.0 hPa NNW 5.0 km/h 7.9 km/h 82 % 0.0 mm
04:58 -3.6 °C -6.2 °C 1028.0 hPa North 5.0 km/h 7.9 km/h 82 % 0.0 mm
05:03 -3.6 °C -6.2 °C 1028.0 hPa North 5.5 km/h 6.9 km/h 82 % 0.0 mm
05:08 -3.6 °C -6.2 °C 1028.0 hPa NNE 6.9 km/h 6.9 km/h 82 % 0.0 mm
05:13 -3.6 °C -6.2 °C 1028.0 hPa NNE 5.8 km/h 7.9 km/h 82 % 0.0 mm
05:18 -3.6 °C -6.3 °C 1028.0 hPa NNE 5.8 km/h 7.9 km/h 82 % 0.0 mm
05:23 -3.6 °C -6.3 °C 1027.0 hPa NNE 5.5 km/h 7.6 km/h 82 % 0.0 mm
05:24 -3.6 °C -6.3 °C 1027.0 hPa NNE 5.8 km/h 7.6 km/h 82 % 0.0 mm
05:29 -3.7 °C -6.3 °C 1027.0 hPa North 6.1 km/h 7.9 km/h 82 % 0.0 mm
05:34 -3.7 °C -6.2 °C 1027.0 hPa NNE 6.4 km/h 7.9 km/h 83 % 0.0 mm
05:39 -3.7 °C -6.2 °C 1027.0 hPa NNE 5.5 km/h 7.9 km/h 83 % 0.0 mm
05:44 -3.6 °C -6.1 °C 1027.0 hPa NNE 6.4 km/h 10.5 km/h 83 % 0.0 mm
05:49 -3.7 °C -6.2 °C 1027.0 hPa North 7.2 km/h 10.5 km/h 83 % 0.0 mm
05:54 -3.8 °C -6.3 °C 1027.0 hPa NNE 6.9 km/h 9.7 km/h 83 % 0.0 mm
05:59 -3.8 °C -6.3 °C 1027.0 hPa NNE 7.9 km/h 9.7 km/h 83 % 0.0 mm
06:04 -3.8 °C -6.3 °C 1027.0 hPa NNE 5.0 km/h 10.5 km/h 83 % 0.0 mm
06:09 -3.8 °C -6.1 °C 1027.0 hPa NNE 6.4 km/h 10.5 km/h 84 % 0.0 mm
06:14 -3.9 °C -6.2 °C 1027.0 hPa NNE 6.4 km/h 9.7 km/h 84 % 0.0 mm
06:19 -3.9 °C -6.2 °C 1027.0 hPa North 6.4 km/h 9.0 km/h 84 % 0.0 mm
06:24 -4.0 °C -6.3 °C 1027.0 hPa NNE 6.4 km/h 8.7 km/h 84 % 0.0 mm
06:29 -4.0 °C -6.3 °C 1027.0 hPa NE 6.9 km/h 9.0 km/h 84 % 0.0 mm
06:34 -4.1 °C -6.4 °C 1027.0 hPa NNE 6.9 km/h 9.0 km/h 84 % 0.0 mm
06:39 -4.1 °C -6.4 °C 1027.0 hPa NNE 6.9 km/h 7.6 km/h 84 % 0.0 mm
06:44 -4.1 °C -6.3 °C 1027.0 hPa NE 6.4 km/h 6.9 km/h 85 % 0.0 mm
06:49 -4.0 °C -6.2 °C 1027.0 hPa NNE 8.7 km/h 9.0 km/h 85 % 0.0 mm
06:54 -3.9 °C -5.9 °C 1027.0 hPa NNE 7.9 km/h 9.7 km/h 86 % 0.0 mm
06:59 -3.9 °C -5.9 °C 1027.0 hPa NNE 6.9 km/h 10.1 km/h 86 % 0.0 mm
07:04 -3.9 °C -5.9 °C 1027.0 hPa NNE 6.9 km/h 10.5 km/h 86 % 0.0 mm
07:09 -4.0 °C -6.2 °C 1027.0 hPa NNE 7.9 km/h 10.5 km/h 85 % 0.0 mm
07:14 -4.0 °C -6.2 °C 1027.0 hPa NNE 6.4 km/h 10.5 km/h 85 % 0.0 mm
07:19 -4.0 °C -6.0 °C 1027.0 hPa NNE 6.4 km/h 9.3 km/h 86 % 0.0 mm
07:24 -4.0 °C -6.0 °C 1027.0 hPa North 6.9 km/h 10.5 km/h 86 % 0.0 mm
07:29 -4.0 °C -6.0 °C 1027.0 hPa NNE 6.4 km/h 10.5 km/h 86 % 0.0 mm
07:34 -4.1 °C -6.1 °C 1027.0 hPa North 7.9 km/h 9.3 km/h 86 % 0.0 mm
07:39 -4.1 °C -6.1 °C 1027.0 hPa NNE 8.7 km/h 9.3 km/h 86 % 0.0 mm
07:44 -4.1 °C -6.1 °C 1027.0 hPa NNE 6.4 km/h 8.7 km/h 86 % 0.0 mm
07:49 -4.2 °C -6.2 °C 1027.0 hPa North 6.9 km/h 7.6 km/h 86 % 0.0 mm
07:54 -4.2 °C -6.2 °C 1027.0 hPa North 6.1 km/h 7.9 km/h 86 % 0.0 mm
07:59 -4.3 °C -6.3 °C 1027.0 hPa NNE 5.8 km/h 7.9 km/h 86 % 0.0 mm
08:04 -4.4 °C -6.6 °C 1027.0 hPa NE 5.8 km/h 6.9 km/h 85 % 0.0 mm
08:09 -4.5 °C -6.7 °C 1027.0 hPa North 4.7 km/h 6.9 km/h 85 % 0.0 mm
08:14 -4.6 °C -6.7 °C 1027.0 hPa NNE 4.3 km/h 6.9 km/h 85 % 0.0 mm
08:20 -4.6 °C -6.6 °C 1027.0 hPa NNE 6.1 km/h 6.9 km/h 86 % 0.0 mm
08:25 -4.6 °C -6.6 °C 1027.0 hPa NNE 4.3 km/h 6.9 km/h 86 % 0.0 mm
08:30 -4.6 °C -6.6 °C 1027.0 hPa North 6.1 km/h 6.9 km/h 86 % 0.0 mm
08:35 -4.6 °C -6.6 °C 1027.0 hPa NNE 4.7 km/h 6.9 km/h 86 % 0.0 mm
08:40 -4.6 °C -6.4 °C 1027.0 hPa NNE 5.0 km/h 6.4 km/h 87 % 0.0 mm
08:45 -4.6 °C -6.4 °C 1027.0 hPa NNE 5.5 km/h 6.1 km/h 87 % 0.0 mm
08:50 -4.6 °C -6.4 °C 1027.0 hPa NNE 5.8 km/h 6.1 km/h 87 % 0.0 mm
08:55 -4.6 °C -6.4 °C 1028.0 hPa North 4.3 km/h 6.9 km/h 87 % 0.0 mm
09:00 -4.5 °C -6.3 °C 1028.0 hPa North 5.8 km/h 6.9 km/h 87 % 0.0 mm
09:05 -4.4 °C -6.1 °C 1028.0 hPa NNE 9.0 km/h 9.0 km/h 88 % 0.0 mm
09:10 -4.3 °C -6.0 °C 1028.0 hPa North 6.4 km/h 9.0 km/h 88 % 0.0 mm
09:15 -4.3 °C -6.0 °C 1028.0 hPa North 6.1 km/h 7.9 km/h 88 % 0.0 mm
09:20 -4.2 °C -5.9 °C 1028.0 hPa North 6.1 km/h 7.6 km/h 88 % 0.0 mm
09:25 -4.2 °C -5.8 °C 1028.0 hPa NNE 7.6 km/h 7.6 km/h 89 % 0.0 mm
09:30 -4.1 °C -5.7 °C 1028.0 hPa NNE 5.5 km/h 7.6 km/h 89 % 0.0 mm
09:35 -3.9 °C -5.4 °C 1028.0 hPa NE 4.3 km/h 7.9 km/h 89 % 0.0 mm
09:40 -3.7 °C -5.3 °C 1027.0 hPa NE 5.5 km/h 7.9 km/h 89 % 0.0 mm
09:45 -3.6 °C -5.2 °C 1027.0 hPa NE 4.7 km/h 6.1 km/h 89 % 0.0 mm
09:50 -3.3 °C -4.9 °C 1027.0 hPa NE 5.0 km/h 6.1 km/h 89 % 0.0 mm
09:55 -3.1 °C -4.4 °C 1028.0 hPa NNE 4.7 km/h 7.6 km/h 90 % 0.0 mm
10:00 -2.7 °C -4.3 °C 1028.0 hPa NNE 6.1 km/h 7.6 km/h 89 % 0.0 mm
10:05 -2.6 °C -3.9 °C 1028.0 hPa NE 4.0 km/h 7.2 km/h 90 % 0.0 mm
10:10 -2.3 °C -3.7 °C 1028.0 hPa NE 4.0 km/h 6.4 km/h 90 % 0.0 mm
10:15 -1.9 °C -3.4 °C 1028.0 hPa NE 4.7 km/h 6.4 km/h 90 % 0.0 mm
10:20 -1.6 °C -3.2 °C 1028.0 hPa NE 5.5 km/h 6.9 km/h 89 % 0.0 mm
10:25 -1.4 °C -2.9 °C 1028.0 hPa East 3.2 km/h 6.9 km/h 89 % 0.0 mm
10:30 -1.0 °C -2.6 °C 1028.0 hPa NE 3.2 km/h 6.4 km/h 89 % 0.0 mm
10:35 -0.8 °C -2.5 °C 1028.0 hPa NNE 5.0 km/h 5.8 km/h 88 % 0.0 mm
10:40 -0.6 °C -2.3 °C 1028.0 hPa ENE 5.8 km/h 6.4 km/h 88 % 0.0 mm
10:45 -0.5 °C -2.2 °C 1028.0 hPa NE 6.9 km/h 7.6 km/h 88 % 0.0 mm
10:50 -0.4 °C -2.3 °C 1028.0 hPa NE 6.1 km/h 7.9 km/h 87 % 0.0 mm
10:55 -0.1 °C -2.2 °C 1028.0 hPa ENE 6.9 km/h 7.9 km/h 86 % 0.0 mm
11:00 -0.1 °C -2.2 °C 1028.0 hPa East 5.5 km/h 7.9 km/h 86 % 0.0 mm
11:05 0.3 °C -1.9 °C 1028.0 hPa ENE 6.1 km/h 7.9 km/h 85 % 0.0 mm
11:10 0.5 °C -1.9 °C 1028.0 hPa East 5.5 km/h 7.6 km/h 84 % 0.0 mm
11:15 0.7 °C -1.7 °C 1028.0 hPa NE 4.7 km/h 7.6 km/h 84 % 0.0 mm
11:20 0.8 °C -1.8 °C 1028.0 hPa NE 6.1 km/h 6.1 km/h 83 % 0.0 mm
11:25 1.0 °C -1.9 °C 1027.0 hPa East 5.0 km/h 6.1 km/h 81 % 0.0 mm
11:30 1.2 °C -1.7 °C 1027.0 hPa East 5.0 km/h 6.1 km/h 81 % 0.0 mm
11:35 1.3 °C -1.8 °C 1027.0 hPa East 4.7 km/h 5.8 km/h 80 % 0.0 mm
11:40 1.6 °C -1.8 °C 1027.0 hPa ESE 4.3 km/h 5.5 km/h 78 % 0.0 mm
11:45 1.8 °C -1.7 °C 1027.0 hPa ESE 4.3 km/h 5.8 km/h 78 % 0.0 mm
11:50 1.9 °C -2.2 °C 1027.0 hPa ESE 5.5 km/h 6.4 km/h 74 % 0.0 mm
11:55 2.1 °C -2.1 °C 1027.0 hPa SSE 4.7 km/h 6.9 km/h 74 % 0.0 mm
12:00 2.6 °C -1.3 °C 1027.0 hPa SSE 1.4 km/h 6.9 km/h 76 % 0.0 mm
12:05 2.7 °C -1.4 °C 1027.0 hPa SSW 6.4 km/h 10.5 km/h 74 % 0.0 mm
12:10 3.1 °C -1.7 °C 1027.0 hPa South 6.9 km/h 10.5 km/h 71 % 0.0 mm
12:15 3.2 °C -1.9 °C 1027.0 hPa SSE 9.3 km/h 12.2 km/h 69 % 0.0 mm
12:20 3.3 °C -3.1 °C 1027.0 hPa SSW 3.2 km/h 12.2 km/h 63 % 0.0 mm
12:25 3.3 °C -3.1 °C 1027.0 hPa SSE 4.3 km/h 10.5 km/h 63 % 0.0 mm
12:30 3.3 °C -3.1 °C 1027.0 hPa SSE 5.0 km/h 10.5 km/h 63 % 0.0 mm
12:35 3.3 °C -3.1 °C 1027.0 hPa SSW 5.0 km/h 10.1 km/h 63 % 0.0 mm
12:40 3.3 °C -3.1 °C 1026.0 hPa South 4.3 km/h 9.7 km/h 63 % 0.0 mm
12:45 3.7 °C -3.6 °C 1026.0 hPa SSW 8.7 km/h 9.7 km/h 59 % 0.0 mm
12:50 3.7 °C -3.6 °C 1026.0 hPa South 9.0 km/h 10.5 km/h 59 % 0.0 mm
12:55 3.7 °C -3.8 °C 1027.0 hPa South 6.4 km/h 10.5 km/h 58 % 0.0 mm
13:00 3.8 °C -3.9 °C 1027.0 hPa SSE 7.9 km/h 9.7 km/h 57 % 0.0 mm
13:05 3.8 °C -3.9 °C 1027.0 hPa South 9.3 km/h 9.3 km/h 57 % 0.0 mm
13:10 3.8 °C -4.2 °C 1026.0 hPa South 6.4 km/h 9.3 km/h 56 % 0.0 mm
13:15 3.9 °C -4.1 °C 1026.0 hPa South 6.9 km/h 8.7 km/h 56 % 0.0 mm
13:20 4.0 °C -4.2 °C 1026.0 hPa SSE 9.7 km/h 10.1 km/h 55 % 0.0 mm
13:25 4.0 °C -4.2 °C 1027.0 hPa SSW 9.0 km/h 10.1 km/h 55 % 0.0 mm
13:30 3.9 °C -4.3 °C 1027.0 hPa South 9.7 km/h 10.5 km/h 55 % 0.0 mm
13:35 3.9 °C -4.6 °C 1027.0 hPa South 5.5 km/h 10.5 km/h 54 % 0.0 mm
13:40 4.0 °C -4.4 °C 1027.0 hPa SSW 5.5 km/h 8.7 km/h 54 % 0.0 mm
13:45 4.0 °C -4.7 °C 1027.0 hPa South 6.1 km/h 11.9 km/h 53 % 0.0 mm
13:50 4.0 °C -4.4 °C 1027.0 hPa SSE 4.7 km/h 11.9 km/h 54 % 0.0 mm
13:55 4.0 °C -4.4 °C 1027.0 hPa SSW 5.0 km/h 9.7 km/h 54 % 0.0 mm
14:00 4.0 °C -4.7 °C 1027.0 hPa SSW 6.4 km/h 9.7 km/h 53 % 0.0 mm
14:05 4.1 °C -4.6 °C 1027.0 hPa SSE 5.5 km/h 9.7 km/h 53 % 0.0 mm
14:10 4.2 °C -4.3 °C 1026.0 hPa South 4.3 km/h 9.7 km/h 54 % 0.0 mm
14:15 4.2 °C -4.6 °C 1026.0 hPa SSE 8.7 km/h 9.7 km/h 53 % 0.0 mm
14:20 4.0 °C -4.7 °C 1026.0 hPa SSW 2.1 km/h 8.7 km/h 53 % 0.0 mm
14:25 4.2 °C -4.3 °C 1026.0 hPa SSE 3.2 km/h 8.7 km/h 54 % 0.0 mm
14:30 4.3 °C -4.4 °C 1026.0 hPa SSE 5.5 km/h 7.9 km/h 53 % 0.0 mm
14:35 4.4 °C -4.3 °C 1026.0 hPa South 4.0 km/h 7.9 km/h 53 % 0.0 mm
14:40 4.3 °C -4.4 °C 1026.0 hPa SSE 7.9 km/h 7.9 km/h 53 % 0.0 mm
14:45 4.2 °C -4.8 °C 1026.0 hPa South 4.3 km/h 7.9 km/h 52 % 0.0 mm
14:50 4.2 °C -4.8 °C 1026.0 hPa SSE 4.0 km/h 7.9 km/h 52 % 0.0 mm
14:55 4.3 °C -4.7 °C 1026.0 hPa SE 7.6 km/h 7.6 km/h 52 % 0.0 mm
15:00 4.2 °C -4.8 °C 1026.0 hPa SE 6.9 km/h 7.9 km/h 52 % 0.0 mm
15:05 4.2 °C -4.8 °C 1026.0 hPa SSE 6.1 km/h 7.9 km/h 52 % 0.0 mm
15:10 4.1 °C -4.9 °C 1026.0 hPa ESE 3.2 km/h 7.6 km/h 52 % 0.0 mm
15:15 4.1 °C -4.9 °C 1026.0 hPa SSE 6.9 km/h 9.0 km/h 52 % 0.0 mm
15:20 3.9 °C -5.1 °C 1026.0 hPa SSE 6.4 km/h 9.0 km/h 52 % 0.0 mm
15:25 3.7 °C -5.2 °C 1026.0 hPa SSE 5.0 km/h 9.0 km/h 52 % 0.0 mm
15:30 3.8 °C -4.9 °C 1026.0 hPa South 5.5 km/h 6.4 km/h 53 % 0.0 mm
15:35 3.9 °C -5.1 °C 1026.0 hPa South 4.7 km/h 6.4 km/h 52 % 0.0 mm
15:40 3.8 °C -4.9 °C 1026.0 hPa SE 5.0 km/h 9.3 km/h 53 % 0.0 mm
15:45 3.7 °C -5.0 °C 1026.0 hPa SSE 5.8 km/h 9.3 km/h 53 % 0.0 mm
15:50 3.6 °C -5.4 °C 1026.0 hPa SE 6.4 km/h 9.3 km/h 52 % 0.0 mm
15:55 3.6 °C -5.2 °C 1026.0 hPa SSE 7.6 km/h 9.3 km/h 53 % 0.0 mm
16:00 3.6 °C -5.2 °C 1026.0 hPa SSE 4.3 km/h 9.0 km/h 53 % 0.0 mm
16:05 3.6 °C -5.2 °C 1026.0 hPa SSE 5.8 km/h 6.4 km/h 53 % 0.0 mm
16:10 3.4 °C -5.3 °C 1026.0 hPa South 4.0 km/h 6.9 km/h 53 % 0.0 mm
16:15 3.3 °C -5.3 °C 1026.0 hPa SSE 6.1 km/h 7.6 km/h 53 % 0.0 mm
16:20 3.2 °C -5.4 °C 1026.0 hPa South 2.6 km/h 8.7 km/h 53 % 0.0 mm
16:25 2.9 °C -5.7 °C 1026.0 hPa SSE 4.7 km/h 8.7 km/h 53 % 0.0 mm
16:30 2.6 °C -6.1 °C 1026.0 hPa SSE 5.8 km/h 6.1 km/h 53 % 0.0 mm
16:35 2.3 °C -6.1 °C 1026.0 hPa South 4.0 km/h 5.8 km/h 54 % 0.0 mm
16:40 2.1 °C -6.3 °C 1026.0 hPa South 3.2 km/h 5.8 km/h 54 % 0.0 mm
16:45 1.8 °C -6.3 °C 1026.0 hPa South 2.6 km/h 5.5 km/h 55 % 0.0 mm
16:50 1.6 °C -6.3 °C 1026.0 hPa South 2.1 km/h 4.0 km/h 56 % 0.0 mm
16:55 1.3 °C -6.6 °C 1026.0 hPa SSE 4.0 km/h 4.0 km/h 56 % 0.0 mm
17:00 1.0 °C -6.8 °C 1026.0 hPa SSE 2.6 km/h 5.0 km/h 56 % 0.0 mm
17:05 0.7 °C -6.9 °C 1026.0 hPa SSE 1.8 km/h 5.0 km/h 57 % 0.0 mm
17:10 0.4 °C -6.9 °C 1026.0 hPa SSE 1.8 km/h 4.3 km/h 58 % 0.0 mm
17:15 0.2 °C -7.1 °C 1026.0 hPa SSE 4.7 km/h 4.7 km/h 58 % 0.0 mm
17:20 -0.1 °C -7.2 °C 1026.0 hPa SSE 2.6 km/h 4.7 km/h 59 % 0.0 mm
17:25 -0.3 °C -7.1 °C 1026.0 hPa SE 4.0 km/h 5.5 km/h 60 % 0.0 mm
17:30 -0.5 °C -7.1 °C 1026.0 hPa ESE 1.8 km/h 5.5 km/h 61 % 0.0 mm
17:35 -0.7 °C -7.3 °C 1026.0 hPa SE 1.4 km/h 4.3 km/h 61 % 0.0 mm
17:40 -1.0 °C -7.3 °C 1026.0 hPa Calm   3.2 km/h 62 % 0.0 mm
17:45 -1.3 °C -7.6 °C 1026.0 hPa Calm   2.6 km/h 62 % 0.0 mm
17:50 -1.4 °C -7.6 °C 1026.0 hPa Calm   2.6 km/h 63 % 0.0 mm
17:55 -1.7 °C -7.6 °C 1026.0 hPa Calm     64 % 0.0 mm
18:00 -1.7 °C -7.4 °C 1026.0 hPa Calm   4.3 km/h 65 % 0.0 mm
18:05 -1.8 °C -7.3 °C 1026.0 hPa East 1.8 km/h 4.3 km/h 66 % 0.0 mm
18:10 -1.9 °C -7.2 °C 1026.0 hPa NE 2.6 km/h 3.2 km/h 67 % 0.0 mm
18:15 -1.9 °C -7.0 °C 1026.0 hPa East 2.6 km/h 3.2 km/h 68 % 0.0 mm
18:20 -1.9 °C -6.9 °C 1026.0 hPa Calm   4.0 km/h 69 % 0.0 mm
18:25 -2.2 °C -7.1 °C 1026.0 hPa Calm   4.0 km/h 69 % 0.0 mm
18:30 -2.2 °C -6.9 °C 1026.0 hPa NE 1.8 km/h 3.2 km/h 70 % 0.0 mm
18:35 -2.2 °C -6.9 °C 1026.0 hPa ENE 3.5 km/h 3.5 km/h 70 % 0.0 mm
18:40 -2.3 °C -6.8 °C 1026.0 hPa NE 4.0 km/h 4.3 km/h 71 % 0.0 mm
18:45 -2.3 °C -6.9 °C 1026.0 hPa ENE 3.2 km/h 4.3 km/h 71 % 0.0 mm
18:50 -2.4 °C -6.8 °C 1026.0 hPa ENE 1.4 km/h 4.0 km/h 72 % 0.0 mm
18:55 -2.7 °C -7.0 °C 1026.0 hPa Calm   3.2 km/h 72 % 0.0 mm
19:00 -2.7 °C -7.1 °C 1026.0 hPa Calm   1.4 km/h 72 % 0.0 mm
19:05 -2.9 °C -7.1 °C 1026.0 hPa Calm     73 % 0.0 mm
19:10 -3.1 °C -7.2 °C 1026.0 hPa Calm     73 % 0.0 mm
19:15 -3.1 °C -7.1 °C 1026.0 hPa ENE 1.8 km/h 1.8 km/h 74 % 0.0 mm
19:20 -3.1 °C -7.1 °C 1026.0 hPa Calm   3.2 km/h 74 % 0.0 mm
19:25 -3.2 °C -7.1 °C 1026.0 hPa Calm   3.2 km/h 75 % 0.0 mm
19:30 -3.2 °C -7.1 °C 1026.0 hPa ENE 1.4 km/h 2.1 km/h 75 % 0.0 mm
19:35 -3.3 °C -7.1 °C 1026.0 hPa Calm   2.1 km/h 75 % 0.0 mm
19:40 -3.3 °C -6.9 °C 1026.0 hPa Calm     76 % 0.0 mm
19:45 -3.4 °C -7.1 °C 1026.0 hPa Calm     76 % 0.0 mm
19:50 -3.6 °C -7.2 °C 1026.0 hPa Calm     76 % 0.0 mm
19:55 -3.8 °C -7.4 °C 1026.0 hPa Calm     76 % 0.0 mm
20:00 -3.7 °C -7.3 °C 1026.0 hPa Calm     76 % 0.0 mm
20:05 -3.6 °C -7.1 °C 1026.0 hPa Calm     77 % 0.0 mm
20:10 -3.4 °C -6.9 °C 1026.0 hPa Calm     77 % 0.0 mm
20:15 -3.4 °C -6.7 °C 1026.0 hPa Calm     78 % 0.0 mm
20:20 -3.3 °C -6.6 °C 1026.0 hPa Calm     78 % 0.0 mm
20:25 -3.4 °C -6.6 °C 1026.0 hPa Calm     79 % 0.0 mm
20:30 -3.6 °C -6.9 °C 1026.0 hPa Calm     78 % 0.0 mm
20:35 -3.7 °C -7.0 °C 1026.0 hPa Calm     78 % 0.0 mm
20:40 -3.8 °C -7.1 °C 1026.0 hPa Calm     78 % 0.0 mm
20:45 -3.9 °C -7.0 °C 1026.0 hPa Calm     79 % 0.0 mm
20:46 -3.9 °C -7.0 °C 1026.0 hPa Calm     79 % 0.0 mm
20:51 -3.9 °C -7.0 °C 1026.0 hPa Calm     79 % 0.0 mm
20:56 -3.8 °C -6.9 °C 1026.0 hPa Calm     79 % 0.0 mm
21:01 -3.9 °C -6.9 °C 1026.0 hPa North 3.2 km/h 3.5 km/h 80 % 0.0 mm
21:06 -3.9 °C -6.9 °C 1026.0 hPa Calm   3.5 km/h 80 % 0.0 mm
21:11 -4.0 °C -6.9 °C 1026.0 hPa Calm   2.1 km/h 80 % 0.0 mm
21:16 -4.1 °C -7.1 °C 1026.0 hPa Calm     80 % 0.0 mm
21:21 -4.2 °C -7.2 °C 1026.0 hPa Calm     80 % 0.0 mm
21:26 -4.4 °C -7.3 °C 1026.0 hPa Calm     80 % 0.0 mm
21:31 -4.4 °C -7.3 °C 1026.0 hPa Calm     80 % 0.0 mm
21:36 -4.5 °C -7.3 °C 1026.0 hPa Calm   2.6 km/h 81 % 0.0 mm
21:41 -4.4 °C -7.2 °C 1026.0 hPa North 2.1 km/h 2.6 km/h 81 % 0.0 mm
21:46 -4.3 °C -7.1 °C 1026.0 hPa North 1.8 km/h 3.2 km/h 81 % 0.0 mm
21:51 -4.3 °C -6.9 °C 1026.0 hPa North 1.8 km/h 3.2 km/h 82 % 0.0 mm
21:56 -4.3 °C -6.9 °C 1026.0 hPa North 3.2 km/h 3.5 km/h 82 % 0.0 mm
22:01 -4.1 °C -6.6 °C 1026.0 hPa NNE 3.2 km/h 4.0 km/h 83 % 0.0 mm
22:06 -3.9 °C -6.2 °C 1026.0 hPa NNE 2.6 km/h 4.0 km/h 84 % 0.0 mm
22:11 -3.8 °C -6.1 °C 1026.0 hPa North 3.5 km/h 4.3 km/h 84 % 0.0 mm
22:16 -3.8 °C -6.1 °C 1026.0 hPa North 2.6 km/h 4.3 km/h 84 % 0.0 mm
22:21 -3.9 °C -6.2 °C 1026.0 hPa NNE 2.1 km/h 3.5 km/h 84 % 0.0 mm
22:26 -4.0 °C -6.3 °C 1026.0 hPa NE 4.3 km/h 4.3 km/h 84 % 0.0 mm
22:31 -4.0 °C -6.3 °C 1026.0 hPa NNE 4.0 km/h 4.7 km/h 84 % 0.0 mm
22:36 -4.0 °C -6.3 °C 1026.0 hPa North 2.1 km/h 4.7 km/h 84 % 0.0 mm
22:41 -3.9 °C -6.1 °C 1026.0 hPa North 1.8 km/h 4.7 km/h 85 % 0.0 mm
22:46 -4.0 °C -6.3 °C 1026.0 hPa Calm   3.5 km/h 84 % 0.0 mm
22:51 -4.2 °C -6.5 °C 1026.0 hPa Calm   3.5 km/h 84 % 0.0 mm
22:56 -4.5 °C -6.9 °C 1026.0 hPa Calm     83 % 0.0 mm
23:01 -4.6 °C -7.1 °C 1026.0 hPa Calm     83 % 0.0 mm
23:06 -4.7 °C -7.0 °C 1026.0 hPa NE 2.1 km/h 3.5 km/h 84 % 0.0 mm
23:11 -4.6 °C -6.9 °C 1026.0 hPa NE 4.0 km/h 4.3 km/h 84 % 0.0 mm
23:16 -4.6 °C -6.7 °C 1026.0 hPa NNE 2.6 km/h 4.3 km/h 85 % 0.0 mm
23:21 -4.6 °C -6.7 °C 1026.0 hPa NE 4.3 km/h 4.3 km/h 85 % 0.0 mm
23:26 -4.5 °C -6.7 °C 1026.0 hPa ENE 3.2 km/h 4.3 km/h 85 % 0.0 mm
23:31 -4.6 °C -6.6 °C 1026.0 hPa Calm   4.3 km/h 86 % 0.0 mm
23:36 -4.7 °C -6.8 °C 1026.0 hPa Calm   3.2 km/h 85 % 0.0 mm
23:41 -4.8 °C -6.9 °C 1026.0 hPa Calm     85 % 0.0 mm
23:46 -4.9 °C -6.9 °C 1026.0 hPa Calm     86 % 0.0 mm
23:51 -5.0 °C -7.0 °C 1026.0 hPa Calm     86 % 0.0 mm
23:56 -5.0 °C -7.0 °C 1027.0 hPa Calm   2.1 km/h 86 % 0.0 mm
Le Gheer Warneton
Courtoisie de Weather Underground - 2.25 mb

Mise a jour : 17-12-17 03:15:13
Généré par Cumulus 1.9.4 (1099)